Location: Bagnara
(41.0500°N, 14.7833°E)
Time: 02:33:45
(UTC+00:00)

ARIANE 5 R/B - Visible Passes

Search period start: 17 October 2021 00:00
Search period end: 27 October 2021 00:00
Orbit: 748 x 795 km, 98.7° (Epoch: 16 October)

Date Brightness Start Highest point End Pass type
(mag) Time Alt. Az. Time Alt. Az. Time Alt. Az.
17 Oct 5.2 01:29:01 10° NE 01:29:54 14° NE 01:29:54 14° NE visible
17 Oct 3.7 03:07:40 10° N 03:10:13 26° NNW 03:10:13 26° NNW visible
18 Oct 4.0 02:32:29 10° NNE 02:34:46 28° N 02:34:46 28° N visible
19 Oct 4.7 01:57:44 10° NNE 01:59:19 20° NE 01:59:19 20° NE visible
19 Oct 4.1 03:37:38 10° NNW 03:39:39 18° NW 03:39:39 18° NW visible
20 Oct 5.4 01:23:38 10° NE 01:23:52 11° NE 01:23:52 11° NE visible
20 Oct 3.9 03:02:00 10° N 03:04:12 24° NNW 03:04:12 24° NNW visible
21 Oct 4.3 02:26:53 10° NNE 02:28:44 23° NNE 02:28:44 23° NNE visible
21 Oct 4.5 04:08:36 10° NW 04:09:04 11° NW 04:09:04 11° NW visible
22 Oct 5.0 01:52:14 10° NNE 01:53:17 16° NE 01:53:17 16° NE visible
22 Oct 4.2 03:31:53 10° NNW 03:33:36 18° NNW 03:33:36 18° NNW visible
23 Oct 4.2 02:56:21 10° N 02:58:09 22° N 02:58:09 22° N visible
24 Oct 4.6 02:21:19 10° NNE 02:22:42 19° NNE 02:22:42 19° NNE visible
24 Oct 4.5 04:02:28 10° NNW 04:03:01 11° NW 04:03:01 11° NW visible
25 Oct 5.2 01:46:44 10° NNE 01:47:14 13° NE 01:47:14 13° NE visible
25 Oct 4.3 03:26:08 10° N 03:27:34 17° NNW 03:27:34 17° NNW visible
26 Oct 4.4 02:50:42 10° N 02:52:07 19° N 02:52:07 19° N visible
